sat.trackr.live / text

‹ back to catalog

STARLINK-30596

NORAD 58110 · 2023-161P

PAYLOAD ACTIVE UNKNOWN

§ Identity

Operator
Country
US
Launch date
2023-10-21
Launch site
AFWTR
Launch vehicle
Mass (kg)
RCS (m²)

Purposes: comms

External: N2YO · Heavens-Above · Gunter

§ Orbital elements

Epoch: 2026-05-25T00:47:18.434400Z

Period
94.11 min
Inclination
53.1593°
Eccentricity
0.0000924
Mean motion
15.30190876 rev/d
Perigee alt
474.6 km
Apogee alt
475.9 km
Semi-major
6,853.4 km
B*
7.1142e-5
RAAN
170.6758°
Arg perigee
88.4211°
Mean anomaly
271.6896°
Rev number
14,611

§ Raw data

STARLINK-305961 58110U 23161P   26145.03285225  .00001748  00000+0  71142-4 0  99912 58110  53.1593 170.6758 0000924  88.4211 271.6896 15.30190876146118

JSON: /api/v1/satellites/58110 · /tle

For live sub-satellite position, see the globe view (requires WebGL).

§ Visibility from observer

Set your observer location to see the next 7 days of passes ≥ 10°. The values pass through the URL so the page stays shareable.

No JS? Fill the form by hand. The geolocation button needs JavaScript.